{"data":{"norad_id":68870,"epoch":"2026-09-20T04:00:03.000096Z","epoch_age_seconds":44304,"freshness":"FRESH","line1":"1 68870U 26095G   26263.16670139 -.00041331  00000+0 -33095-2 0  9998","line2":"2 68870  51.8889 145.7249 0009823 286.4913 214.0036 14.99676154  2322","mean_motion":14.99676154,"eccentricity":0.0009823,"inclination_deg":51.8889,"raan_deg":145.7249,"arg_perigee_deg":286.4913,"mean_anomaly_deg":214.0036,"bstar":-0.0033095,"rev_number":232,"period_min":96.020730619686,"perigee_km":561.07304663652,"apogee_km":574.71922333351,"semimajor_km":6946.033134985,"source":"CELESTRAK","updated_at":"2026-09-20T09:00:24.533209Z"}}